Tracking 27122 objects as of 26-Mar-2023
HD Live streaming from Space Station
objects crossing your sky now

OPS 1570

Track OPS 1570 now!
OPS 1570 is classified as:


NORAD ID: 5851
Int'l Code: 1972-010A
Perigee: 35,907.3 km
Apogee: 35,959.4 km
Inclination: 2.7 °
Period: 1,443.2 minutes
Semi major axis: 42304 km
RCS: Unknown
Launch date: March 1, 1972
Source: United States (US)
Launch site: AIR FORCE EASTERN TEST RANGE (AFETR)
Your satellite tracking list
Your tracking list is empty




NASA's NSSDC Master Catalog

Two Line Element Set (TLE):
1 05851U 72010A   23084.89771552 -.00000311  00000-0  00000-0 0  9996
2 05851   2.6722 278.6704 0006162 358.5795 342.1152  0.99775805 14150
Source of the keplerian elements: McCants